• In Uzbekistan
  • List of Countries
  • For 7 days
  • Water Temperature
  • Satellite Maps
  • Weather Map
  • Weather Widgets
  • user-avatar
    Login

    Hourly Weather Zaafrana

    Today, 17 January, Wednesday

    Time Temperature Precipitation Wind Pressure Humidity
    00:00 +12°C° 0 mm 2 mps 750 mmHg 75%
    01:00 +11°C° 0 mm 3 mps 749 mmHg 76%
    02:00 +11°C° 0 mm 3 mps 749 mmHg 78%
    03:00 +10°C° 0 mm 3 mps 749 mmHg 79%
    04:00 +10°C° 0 mm 3 mps 749 mmHg 81%
    05:00 +9°C° 0 mm 2 mps 749 mmHg 83%
    06:00 +10°C° 0 mm 2 mps 749 mmHg 80%
    07:00 +10°C° 0 mm 2 mps 749 mmHg 78%
    08:00 +12°C° 0 mm 2 mps 749 mmHg 75%
    09:00 +13°C° 0 mm 3 mps 749 mmHg 66%
    10:00 +14°C° 0 mm 3 mps 749 mmHg 57%
    11:00 +17°C° 0 mm 4 mps 749 mmHg 48%
    12:00 +18°C° 0 mm 4 mps 748 mmHg 46%
    13:00 +18°C° 0 mm 4 mps 748 mmHg 44%
    14:00 +19°C° 0 mm 4 mps 747 mmHg 42%
    15:00 +18°C° 0 mm 4 mps 747 mmHg 45%
    16:00 +17°C° 0 mm 3 mps 747 mmHg 48%
    17:00 +17°C° 0 mm 3 mps 747 mmHg 52%
    18:00 +16°C° 0 mm 2 mps 747 mmHg 57%
    19:00 +15°C° 0 mm 2 mps 747 mmHg 62%
    20:00 +14°C° 0 mm 2 mps 747 mmHg 67%
    21:00 +13°C° 0 mm 1 mps 748 mmHg 69%
    22:00 +13°C° 0 mm 1 mps 748 mmHg 71%
    23:00 +12°C° 0 mm 1 mps 748 mmHg 73%

    Tomorrow, 18 January, Thursday

    Time Temperature Precipitation Wind Pressure Humidity
    00:00 +12°C° 0 mm 1 mps 748 mmHg 74%
    01:00 +12°C° 0 mm 2 mps 748 mmHg 76%
    02:00 +12°C° 0 mm 2 mps 748 mmHg 77%
    03:00 +10°C° 0 mm 2 mps 747 mmHg 78%
    04:00 +11°C° 0 mm 1 mps 747 mmHg 79%
    05:00 +11°C° 0 mm 1 mps 747 mmHg 80%
    06:00 +11°C° 0 mm 1 mps 747 mmHg 75%
    07:00 +12°C° 0 mm 1 mps 747 mmHg 70%
    08:00 +13°C° 0 mm 2 mps 747 mmHg 64%
    09:00 +15°C° 0 mm 2 mps 747 mmHg 55%
    10:00 +16°C° 0 mm 3 mps 747 mmHg 46%
    11:00 +18°C° 0 mm 4 mps 747 mmHg 37%
    12:00 +19°C° 0 mm 4 mps 747 mmHg 35%
    13:00 +19°C° 0 mm 5 mps 746 mmHg 33%
    14:00 +20°C° 0 mm 5 mps 745 mmHg 30%
    15:00 +19°C° 0 mm 5 mps 745 mmHg 32%
    16:00 +17°C° 0 mm 5 mps 745 mmHg 34%
    17:00 +18°C° 0 mm 4 mps 745 mmHg 35%
    18:00 +17°C° 0 mm 4 mps 745 mmHg 38%
    19:00 +15°C° 0 mm 4 mps 746 mmHg 40%
    20:00 +14°C° 0 mm 4 mps 746 mmHg 43%
    21:00 +14°C° 0 mm 5 mps 746 mmHg 44%
    22:00 +14°C° 0 mm 5 mps 746 mmHg 46%
    23:00 +14°C° 0 mm 6 mps 747 mmHg 47%

    Day after tomorrow, 19 January, Friday

    Time Temperature Precipitation Wind Pressure Humidity
    00:00 +13°C° 0 mm 6 mps 747 mmHg 54%
    01:00 +13°C° 0 mm 6 mps 747 mmHg 61%
    02:00 +11°C° 0 mm 6 mps 747 mmHg 68%
    03:00 +11°C° 0 mm 6 mps 747 mmHg 69%
    04:00 +10°C° 0 mm 6 mps 747 mmHg 69%
    05:00 +10°C° 0 mm 5 mps 748 mmHg 69%
    06:00 +9°C° 0 mm 5 mps 748 mmHg 65%
    07:00 +9°C° 0 mm 5 mps 749 mmHg 61%
    08:00 +10°C° 0 mm 4 mps 750 mmHg 56%
    09:00 +10°C° 0 mm 5 mps 750 mmHg 51%
    10:00 +13°C° 0 mm 5 mps 750 mmHg 46%
    11:00 +14°C° 0 mm 6 mps 750 mmHg 41%
    12:00 +15°C° 0 mm 6 mps 750 mmHg 38%
    13:00 +16°C° 0 mm 6 mps 749 mmHg 36%
    14:00 +16°C° 0 mm 6 mps 749 mmHg 33%
    15:00 +16°C° 0 mm 5 mps 749 mmHg 35%
    16:00 +15°C° 0 mm 5 mps 749 mmHg 37%
    17:00 +15°C° 0 mm 4 mps 750 mmHg 38%
    18:00 +14°C° 0 mm 4 mps 750 mmHg 43%
    19:00 +13°C° 0 mm 4 mps 751 mmHg 48%
    20:00 +12°C° 0 mm 3 mps 752 mmHg 53%
    21:00 +11°C° 0 mm 3 mps 752 mmHg 56%
    22:00 +10°C° 0 mm 3 mps 752 mmHg 60%
    23:00 +10°C° 0 mm 3 mps 752 mmHg 64%

    20 January, Saturday

    Time Temperature Precipitation Wind Pressure Humidity
    00:00 +10°C° 0 mm 3 mps 752 mmHg 67%
    01:00 +9°C° 0 mm 2 mps 752 mmHg 70%
    02:00 +9°C° 0 mm 2 mps 752 mmHg 73%
    03:00 +9°C° 0 mm 2 mps 752 mmHg 75%
    04:00 +9°C° 0 mm 2 mps 752 mmHg 77%
    05:00 +9°C° 0 mm 2 mps 752 mmHg 79%
    06:00 +9°C° 0 mm 2 mps 752 mmHg 76%
    07:00 +10°C° 0 mm 2 mps 753 mmHg 74%
    08:00 +10°C° 0 mm 2 mps 753 mmHg 71%
    09:00 +13°C° 0 mm 3 mps 753 mmHg 60%
    10:00 +16°C° 0 mm 3 mps 752 mmHg 48%
    11:00 +18°C° 0 mm 3 mps 752 mmHg 37%
    12:00 +19°C° 0 mm 3 mps 751 mmHg 33%
    13:00 +20°C° 0 mm 3 mps 751 mmHg 28%
    14:00 +21°C° 0 mm 3 mps 750 mmHg 24%
    15:00 +20°C° 0 mm 3 mps 750 mmHg 27%
    16:00 +19°C° 0 mm 3 mps 750 mmHg 30%
    17:00 +18°C° 0 mm 2 mps 750 mmHg 32%
    18:00 +17°C° 0 mm 2 mps 750 mmHg 36%
    19:00 +15°C° 0 mm 2 mps 750 mmHg 40%
    20:00 +14°C° 0 mm 2 mps 750 mmHg 44%
    21:00 +14°C° 0 mm 2 mps 750 mmHg 45%
    22:00 +13°C° 0 mm 1 mps 750 mmHg 46%
    23:00 +13°C° 0 mm 1 mps 750 mmHg 47%

    21 January, Sunday

    Time Temperature Precipitation Wind Pressure Humidity
    00:00 +13°C° 0 mm 1 mps 749 mmHg 45%
    01:00 +13°C° 0 mm 2 mps 749 mmHg 43%
    02:00 +13°C° 0 mm 2 mps 749 mmHg 42%
    03:00 +12°C° 0 mm 2 mps 748 mmHg 40%
    04:00 +12°C° 0 mm 2 mps 748 mmHg 39%
    05:00 +12°C° 0 mm 2 mps 748 mmHg 37%
    06:00 +13°C° 0 mm 2 mps 748 mmHg 33%
    07:00 +14°C° 0 mm 2 mps 748 mmHg 30%
    08:00 +15°C° 0 mm 2 mps 748 mmHg 26%
    09:00 +17°C° 0 mm 3 mps 748 mmHg 22%
    10:00 +20°C° 0 mm 3 mps 748 mmHg 18%
    11:00 +22°C° 0 mm 3 mps 747 mmHg 13%
    12:00 +24°C° 0 mm 3 mps 747 mmHg 13%
    13:00 +25°C° 0 mm 4 mps 746 mmHg 12%
    14:00 +25°C° 0 mm 4 mps 745 mmHg 11%
    15:00 +23°C° 0 mm 4 mps 745 mmHg 15%
    16:00 +21°C° 0 mm 3 mps 745 mmHg 19%
    17:00 +20°C° 0 mm 3 mps 745 mmHg 23%
    18:00 +18°C° 0 mm 3 mps 745 mmHg 24%
    19:00 +17°C° 0 mm 3 mps 745 mmHg 26%
    20:00 +16°C° 0 mm 3 mps 745 mmHg 28%
    21:00 +16°C° 0 mm 3 mps 745 mmHg 30%
    22:00 +16°C° 0 mm 3 mps 745 mmHg 31%
    23:00 +14°C° 0 mm 3 mps 745 mmHg 32%

    22 January, Monday

    Time Temperature Precipitation Wind Pressure Humidity
    00:00 +14°C° 0 mm 3 mps 745 mmHg 35%
    01:00 +14°C° 0 mm 3 mps 744 mmHg 37%
    02:00 +13°C° 0 mm 3 mps 744 mmHg 40%
    03:00 +13°C° 0 mm 3 mps 744 mmHg 41%
    04:00 +13°C° 0 mm 3 mps 744 mmHg 41%
    05:00 +12°C° 0 mm 3 mps 744 mmHg 42%
    06:00 +13°C° 0 mm 3 mps 744 mmHg 40%
    07:00 +13°C° 0 mm 3 mps 744 mmHg 38%
    08:00 +13°C° 0 mm 3 mps 744 mmHg 36%
    09:00 +15°C° 0 mm 4 mps 744 mmHg 31%
    10:00 +18°C° 0 mm 4 mps 744 mmHg 26%
    11:00 +20°C° 0 mm 5 mps 744 mmHg 21%
    12:00 +20°C° 0 mm 5 mps 743 mmHg 23%
    13:00 +21°C° 0 mm 6 mps 743 mmHg 25%
    14:00 +21°C° 0 mm 7 mps 742 mmHg 27%
    15:00 +20°C° 0 mm 7 mps 742 mmHg 31%
    16:00 +19°C° 0 mm 6 mps 742 mmHg 35%
    17:00 +19°C° 0 mm 6 mps 742 mmHg 39%
    18:00 +17°C° 0 mm 6 mps 743 mmHg 42%
    19:00 +16°C° 0 mm 7 mps 743 mmHg 46%
    20:00 +15°C° 0 mm 7 mps 744 mmHg 49%
    21:00 +14°C° 0 mm 7 mps 744 mmHg 50%
    22:00 +14°C° 0 mm 6 mps 744 mmHg 52%
    23:00 +13°C° 0 mm 6 mps 744 mmHg 53%
    Show more